Theta_e
315 317 319 319 320 317 319 322 323 321 319 319 319 318 317 313 313 314 316 315 313 312 311 311 313 314 315 316 316 317 317 317 315 313 313 313 312 310 309 309 309 308 309 309
316 317 318 317 317 317 318 321 321 321 318 317 318 318 318 317 313 314 315 315 314 312 310 311 313 314 314 315 315 316 315 315 314 314 313 312 312 309 308 308 308 308 308 308
317 316 316 316 316 317 317 319 320 321 317 315 314 317 316 316 315 314 315 315 314 312 310 310 310 312 313 314 315 315 315 314 312 312 312 311 310 308 307 307 307 307 307 307
316 315 316 315 316 316 318 316 316 317 319 321 316 322 320 317 317 314 314 315 314 313 311 310 309 310 311 313 313 314 313 313 311 311 310 310 309 309 307 307 307 307 307 307
315 314 314 316 315 316 316 315 315 317 317 319 318 319 318 318 318 315 314 314 314 313 311 310 308 308 310 311 311 312 311 311 310 310 309 309 309 308 307 306 306 306 305 305
314 311 313 314 315 315 315 315 315 316 316 317 317 317 316 317 318 317 314 313 313 312 311 309 307 306 308 309 309 310 310 309 309 308 308 307 307 307 306 306 306 305 304 304
313 313 312 312 315 314 314 315 316 317 317 317 316 318 317 316 316 315 315 313 312 312 311 309 306 305 306 307 308 308 308 308 307 306 306 306 306 306 306 305 304 304 304 303
311 312 312 311 313 314 314 314 316 319 321 317 315 316 316 314 310 310 312 314 312 311 310 307 305 305 306 306 306 307 307 306 306 306 306 306 305 305 304 304 304 303 303 301
310 311 312 311 312 313 314 314 313 314 312 315 314 314 313 308 308 308 310 313 312 310 308 306 305 304 304 305 305 306 305 305 305 305 305 305 304 304 303 303 302 302 300 296
310 311 312 311 311 311 313 313 315 313 313 317 314 314 315 313 310 306 308 311 310 309 307 305 303 301 303 304 305 305 304 304 304 305 305 304 303 303 302 302 301 298 293 291
309 309 310 311 311 313 313 313 314 313 313 316 315 313 309 312 311 306 307 310 310 307 305 303 301 301 302 303 304 304 304 303 303 304 304 302 301 301 301 301 296 291 291 290
309 310 309 311 311 311 312 313 314 314 314 312 313 314 310 308 308 309 308 308 308 307 304 302 301 301 301 302 303 303 303 303 303 302 301 300 300 300 298 293 291 290 290 290
309 308 308 310 310 309 310 311 312 313 314 315 315 313 307 306 306 308 308 307 306 305 303 300 299 299 300 300 301 302 303 302 301 300 299 300 299 297 292 290 290 289 289 289
309 309 309 306 306 310 310 311 312 312 315 315 314 314 310 308 306 306 306 306 305 303 302 299 298 298 300 301 301 301 300 300 300 298 299 299 295 291 290 290 289 289 289 289
309 309 308 308 307 307 307 310 311 312 313 314 314 314 313 312 310 307 309 306 304 302 301 299 298 298 299 299 300 299 299 299 298 298 298 295 291 290 289 289 288 288 288 288
307 308 308 308 308 308 309 308 309 311 312 312 313 313 312 313 313 311 307 305 303 302 302 300 299 299 299 299 300 299 299 298 297 297 296 292 290 289 289 288 288 288 288 288
305 308 309 309 307 308 309 308 308 308 308 311 312 312 311 311 310 313 308 307 306 306 304 303 302 300 299 300 300 300 299 298 296 296 293 290 289 289 288 288 288 288 287 287
300 302 304 309 306 311 308 307 307 307 308 308 308 310 310 309 312 313 313 310 308 307 306 305 303 300 299 299 299 299 298 297 296 294 291 289 288 288 288 287 287 287 287 287
301 301 302 306 308 308 307 306 306 306 307 307 307 307 307 308 309 309 310 310 310 310 311 310 309 304 300 300 299 298 297 296 294 292 290 289 288 288 287 287 287 287 287 287
300 301 300 301 304 308 306 305 308 305 308 307 307 307 307 307 306 307 308 309 309 309 310 309 307 302 300 300 299 298 297 295 294 292 290 289 288 287 287 287 287 287 286 286
300 301 302 302 302 302 304 305 308 309 308 308 307 307 307 306 307 308 308 308 309 309 308 306 304 303 302 300 299 298 297 297 295 292 289 288 288 287 286 286 286 286 286 285
296 297 302 304 304 303 304 305 307 306 308 306 306 307 308 308 308 308 308 308 308 307 306 304 303 301 299 298 297 298 298 297 295 291 289 288 287 286 286 286 286 286 285 285
296 296 297 299 300 302 303 302 302 301 303 302 302 305 303 302 305 307 308 308 308 307 306 304 302 299 296 295 296 298 298 296 294 291 289 287 286 286 286 286 286 285 285 284
295 297 298 296 298 298 299 299 302 302 302 302 302 301 303 302 303 302 303 306 307 306 304 303 300 298 296 294 294 296 297 296 294 291 288 287 287 286 285 285 285 285 285 285
295 295 295 298 298 298 299 300 301 301 300 302 303 304 303 302 302 302 300 301 304 304 302 301 299 297 295 294 292 293 295 296 294 290 288 287 286 286 286 285 285 285 285 284
293 294 296 296 297 299 299 299 301 302 302 302 301 300 302 303 302 302 300 299 300 300 300 298 295 294 292 292 290 292 295 295 293 289 287 287 286 286 285 285 285 284 284 283
Wind_Speed
6 3 4 9 8 5 2 6 5 5 4 2 12 12 9 17 14 16 17 16 14 13 11 8 9 9 11 11 11 11 12 10 8 5 5 6 3 1 3 5 6 5 6 6
2 5 6 6 4 3 2 5 5 2 4 2 7 12 12 13 18 23 20 18 16 15 14 12 11 13 13 14 14 14 13 11 11 8 9 8 6 2 3 4 3 3 3 4
5 3 6 5 3 4 4 4 4 3 4 3 5 10 12 11 18 20 20 22 23 25 20 17 16 16 16 16 15 15 14 12 9 8 9 7 5 4 4 2 1 1 3 4
7 4 5 7 6 6 5 6 2 5 3 2 5 6 6 14 17 17 24 27 31 27 21 21 18 18 17 16 15 14 14 12 10 10 8 6 5 7 5 4 3 1 1 2
1 7 5 6 7 6 1 4 2 3 5 6 5 4 5 6 13 15 23 26 26 28 27 24 21 19 19 16 16 15 14 12 12 12 11 11 12 10 7 6 5 2 0 0
5 4 2 5 6 5 4 3 2 1 3 3 10 8 4 3 7 9 19 26 29 29 27 25 21 22 18 17 17 16 15 13 13 14 13 13 10 9 9 8 6 3 2 2
7 7 2 1 5 5 5 4 1 2 2 5 1 8 9 13 7 8 9 26 30 29 28 26 26 24 20 17 17 17 16 15 14 13 13 12 12 11 11 9 7 5 4 4
8 4 10 8 8 5 10 8 4 4 2 3 2 6 5 3 2 5 5 6 28 28 29 28 27 22 20 19 18 18 18 17 16 15 14 14 13 12 11 10 8 7 8 8
4 8 5 10 5 7 8 11 8 7 2 1 5 7 8 5 2 1 4 18 30 31 31 30 26 23 23 21 20 20 18 18 17 16 15 15 14 14 13 11 10 11 11 10
5 5 1 4 2 8 4 1 6 3 3 5 6 8 8 5 6 7 7 17 24 27 26 25 25 26 24 22 21 20 19 18 19 19 18 16 16 13 13 13 13 13 12 11
4 2 2 4 6 7 3 3 6 6 6 3 3 5 3 4 3 9 11 17 25 26 27 28 29 27 25 24 23 23 23 22 21 19 18 18 18 17 16 14 14 14 12 10
7 2 7 8 7 7 11 16 13 5 5 7 7 12 6 7 7 10 17 21 21 26 27 28 29 28 28 26 25 25 24 23 21 19 18 18 18 17 17 17 16 14 11 10
7 4 4 6 1 4 5 10 8 13 8 12 4 7 2 7 6 5 14 19 22 25 27 28 28 30 29 28 27 26 27 25 24 23 24 24 22 20 19 18 16 14 12 10
1 4 9 13 10 8 7 13 15 15 11 21 17 27 4 4 7 10 13 20 23 28 28 29 30 32 32 31 29 30 29 28 26 26 26 24 23 22 20 19 17 15 13 11
4 5 4 13 16 13 14 8 17 17 22 17 29 25 20 16 11 18 23 24 25 29 30 32 34 34 34 34 33 32 30 30 30 30 29 26 25 23 21 20 18 15 14 12
7 7 10 18 21 13 15 16 9 17 26 24 27 28 21 16 12 6 24 28 31 32 32 33 35 36 39 40 37 35 34 34 33 33 31 29 27 25 23 21 18 17 15 14
4 4 7 13 14 13 15 22 24 22 13 17 19 33 14 13 12 22 25 30 35 36 35 35 37 38 40 42 39 39 37 37 37 35 33 31 29 27 24 22 20 19 17 15
6 7 4 10 4 15 9 13 25 26 26 24 22 25 22 17 25 33 37 36 41 38 35 35 37 39 41 42 41 40 40 40 40 38 35 33 31 28 26 24 22 20 18 16
19 8 4 6 8 11 8 8 8 13 27 26 26 34 43 36 34 36 50 43 44 44 40 39 41 41 41 43 44 44 43 43 42 40 38 35 33 30 28 26 24 21 19 17
16 15 10 11 13 9 16 22 16 10 16 24 26 30 28 27 12 21 41 47 48 48 45 45 44 43 42 45 47 48 48 47 46 43 39 36 33 31 29 27 25 22 20 18
5 7 16 17 13 11 16 20 5 16 13 28 32 35 35 17 23 53 32 27 35 43 46 43 44 46 45 48 50 52 51 51 48 42 39 37 34 31 29 27 25 23 21 19
8 5 10 8 13 26 14 13 24 8 22 25 16 29 21 25 33 42 42 39 35 30 34 40 44 46 46 50 52 54 54 51 47 44 41 38 35 33 31 28 26 25 22 20
10 14 9 9 15 9 17 9 29 33 31 28 23 29 30 30 30 30 28 31 36 36 35 38 42 45 47 51 53 55 54 53 49 46 43 39 35 33 31 29 28 26 24 22
8 7 10 4 27 25 43 42 23 23 26 34 28 21 25 32 39 42 35 32 33 36 38 42 45 48 51 52 53 54 55 53 49 46 43 39 37 35 32 30 28 26 24 23
10 0 6 20 28 28 44 36 38 42 37 33 29 27 30 36 40 39 39 37 36 37 39 43 48 50 52 52 54 55 54 53 51 47 43 41 38 35 32 30 28 26 24 22
18 19 12 17 21 20 26 30 19 17 24 30 32 39 37 38 42 42 40 36 35 37 40 43 46 48 49 51 54 55 54 53 50 47 44 41 38 35 32 30 29 27 25 24
Wind_Direction
199 209 184 188 193 72 28 165 197 220 141 270 242 254 211 194 207 220 202 193 196 205 207 210 197 193 183 185 201 213 227 234 235 207 179 224 243 273 65 71 71 60 57 55
118 239 202 52 61 103 275 181 212 168 95 153 292 277 265 208 205 207 208 203 202 202 204 203 202 195 193 191 200 208 221 224 217 201 213 222 211 197 109 102 72 58 21 30
206 82 195 131 176 200 224 252 224 247 141 219 295 273 239 243 207 209 216 213 206 214 208 204 200 199 200 204 202 213 219 224 216 206 217 210 193 164 158 154 112 36 13 51
247 172 169 148 224 207 246 177 271 283 171 260 138 291 250 225 224 198 208 212 205 207 209 208 205 205 210 207 206 211 218 219 216 196 193 184 210 224 219 193 198 150 14 21
185 141 172 188 216 207 82 83 135 203 250 274 185 274 273 229 220 212 211 210 206 207 208 201 207 208 215 210 212 211 215 214 210 202 192 200 211 228 204 199 212 208 195 87
231 22 254 219 204 214 104 164 166 286 240 279 217 180 252 197 231 232 211 210 209 203 203 203 207 214 214 211 216 212 213 209 208 209 213 214 214 201 202 204 204 186 169 162
249 207 150 357 226 184 159 162 307 263 241 237 185 186 246 281 244 221 207 204 205 199 197 198 204 211 215 213 217 210 208 207 209 211 213 214 213 211 209 204 200 188 183 165
210 220 165 183 212 173 207 198 180 226 233 308 29 243 259 171 80 61 189 228 192 191 194 199 208 212 211 214 213 210 205 205 206 205 207 208 209 208 209 209 199 188 169 154
243 225 131 152 195 206 183 219 238 316 350 349 239 256 286 93 107 220 208 171 179 187 192 202 212 211 211 212 214 212 208 205 205 204 208 211 210 210 207 205 190 175 164 156
314 294 94 103 60 280 255 169 207 232 227 241 245 245 243 220 223 185 190 174 174 186 195 205 209 208 212 212 213 213 211 211 208 206 208 210 211 203 197 185 178 170 168 159
176 271 356 71 210 188 193 231 236 176 213 228 296 259 239 108 109 182 184 186 181 185 192 199 206 214 212 210 210 212 211 210 211 209 207 202 194 189 183 183 178 177 171 164
191 274 243 204 221 224 231 218 215 209 223 220 252 257 241 170 151 157 182 190 194 200 201 211 217 216 213 211 212 212 211 212 214 210 201 194 189 184 184 184 183 178 177 175
165 223 254 316 224 199 221 235 244 241 255 250 206 263 53 93 133 173 175 189 196 202 208 216 217 215 215 213 213 213 212 210 207 200 194 190 192 191 189 187 186 186 184 183
310 239 201 222 221 160 200 219 227 224 232 242 238 252 247 201 198 190 200 201 200 203 210 214 218 217 215 216 217 214 209 206 202 197 195 194 193 193 191 191 192 191 191 188
127 243 304 279 271 273 264 224 224 227 234 231 242 248 247 251 253 215 224 197 195 205 211 214 219 219 216 215 214 211 209 204 200 197 197 195 196 195 194 194 196 196 195 196
175 241 241 265 267 263 272 270 256 237 235 242 253 260 253 247 279 238 191 196 203 212 221 223 225 222 216 216 214 210 208 203 200 199 198 198 198 197 197 198 199 199 199 201
293 230 198 243 243 262 253 236 243 245 255 240 239 248 258 254 250 255 218 215 221 228 226 227 230 226 220 217 214 211 208 203 200 200 200 199 199 199 199 201 201 202 203 206
224 256 308 259 155 225 234 239 232 239 240 243 258 265 260 246 253 255 256 241 236 231 232 235 234 228 222 219 214 211 208 204 202 202 201 200 201 201 202 203 204 204 207 210
213 223 243 264 254 266 275 249 210 224 246 241 241 253 257 261 264 263 257 258 252 249 248 249 243 231 220 216 212 209 206 204 204 204 202 203 203 203 204 206 206 207 211 215
220 216 221 243 261 269 242 249 224 222 251 242 234 245 257 256 252 259 257 250 250 250 248 241 231 225 219 215 210 208 205 204 205 206 204 204 205 205 207 207 208 212 214 219
199 214 222 235 249 251 256 266 247 214 237 260 236 245 254 243 238 256 265 259 260 255 244 236 230 225 222 213 208 207 206 206 206 205 205 206 206 206 208 209 211 213 218 222
217 214 225 230 244 256 242 272 219 235 247 307 325 305 282 257 264 263 264 256 254 250 238 236 228 221 217 213 208 207 207 206 205 204 205 206 206 206 208 210 212 215 219 225
244 224 243 228 252 273 287 325 305 308 304 308 316 307 312 312 297 289 276 262 252 247 237 234 226 217 214 213 211 209 207 205 203 203 204 205 206 209 211 212 214 217 221 227
252 250 244 262 260 263 275 286 285 286 288 287 299 309 303 309 307 300 293 277 260 242 231 226 217 214 212 212 211 211 207 204 203 204 204 204 207 209 210 213 217 222 227 231
247 9 247 257 263 271 267 269 274 276 274 274 275 286 301 311 310 308 293 277 258 243 226 222 217 215 214 211 208 207 207 205 202 203 203 204 207 210 212 217 222 227 232 238
225 239 230 247 251 242 264 272 278 263 277 283 289 305 290 290 306 313 292 282 263 237 223 218 214 213 213 210 207 207 207 205 203 201 202 204 207 209 213 218 222 226 230 237